Northview High School FL US WEATHERSTEM current weather conditions

sailwx.info

Wind from 360 at 8 knots gusting 8

Air temperature 8.1° C
Dewpoint 6.9° C

Last reported at 2019-Dec-13 01:50 UTC.
Time now 2019-Dec-13 02:33 UTC

Location: N 30°58' W 087°24'.
View on Google Maps.

See reports from other nearby stations

  
Tides and Currents Weather Stations Pressure Air Temp Water Temp Dewpoint Dewpoint Depression Visibility Wind Speed Wind Dir Waves Ship Positions
date/time (UTC)wind fromknots sea level pressurealtimeterstation pressurevisibilityair tempwater tempwave heightnotes
2019-Dec-13 01:50 360 8 gusting 8 8.1
2019-Dec-13 01:40 8.2
2019-Dec-13 01:30 360 4 gusting 10 8.1
2019-Dec-13 01:10 360 8 gusting 10 8.1
2019-Dec-13 01:00 360 4 gusting 13 8.1
2019-Dec-13 00:50 360 6 gusting 13 8.1
2019-Dec-13 00:40 360 6 gusting 13 8.2
2019-Dec-13 00:30 360 7 gusting 12 8.3
2019-Dec-13 00:20 360 5 gusting 15 8.2
2019-Dec-13 00:10 360 7 gusting 16 8.3
2019-Dec-13 00:00 360 4 gusting 15 8.3
2019-Dec-12 23:50 360 5 gusting 12 8.4
2019-Dec-12 23:40 360 4 gusting 11 8.6
2019-Dec-12 23:30 360 6 gusting 12 8.8
2019-Dec-12 23:20 360 8 gusting 12 9.1
2019-Dec-12 23:10 360 10 gusting 13 9.2
2019-Dec-12 23:00 360 4 gusting 12 9.4
2019-Dec-12 22:50 360 8 gusting 12 9.6
2019-Dec-12 22:40 360 5 gusting 8 9.7
2019-Dec-12 22:30 360 1 gusting 9 9.8
2019-Dec-12 22:20 360 5 gusting 8 9.8
2019-Dec-12 22:10 360 7 gusting 13 9.9
2019-Dec-12 22:00 360 8 gusting 13 10.1
2019-Dec-12 21:50 360 2 gusting 7 10.2
2019-Dec-12 21:40 360 3 gusting 11 10.2
2019-Dec-12 21:30 360 11 gusting 13 10.3
2019-Dec-12 21:20 360 7 gusting 10 10.2
2019-Dec-12 21:10 360 1 gusting 12 10.3
2019-Dec-12 21:00 360 3 gusting 9 10.4
2019-Dec-12 20:50 360 5 gusting 13 10.4
2019-Dec-12 20:40 360 5 gusting 10 10.6
2019-Dec-12 20:30 360 3 gusting 14 10.6
2019-Dec-12 20:20 360 6 gusting 13 10.6
2019-Dec-12 20:10 360 9 gusting 12 10.8
2019-Dec-12 20:00 360 6 gusting 9 10.7
2019-Dec-12 19:50 360 8 gusting 13 10.6
2019-Dec-12 19:40 360 4 gusting 10 10.6
2019-Dec-12 19:30 360 5 gusting 13 10.5
2019-Dec-12 19:20 360 5 gusting 8 10.4
2019-Dec-12 19:10 360 5 gusting 8 10.4
2019-Dec-12 19:00 360 6 gusting 9 10.4
2019-Dec-12 18:50 360 3 gusting 9 10.3
2019-Dec-12 18:40 360 6 gusting 10 10.3
2019-Dec-12 18:30 360 3 gusting 7 10.4
2019-Dec-12 18:20 360 4 gusting 8 10.4
2019-Dec-12 18:10 360 10 gusting 13 10.4
2019-Dec-12 18:00 360 5 gusting 9 10.4
2019-Dec-12 17:50 360 10 gusting 14 10.3
2019-Dec-12 17:40 360 9 gusting 11 10.5
2019-Dec-12 17:30 360 8 gusting 13 10.3
2019-Dec-12 17:20 360 11 gusting 12 10.3
2019-Dec-12 17:10 360 4 gusting 12 10.1
2019-Dec-12 17:00 360 5 gusting 13 10.1
2019-Dec-12 16:50 360 11 gusting 14 9.9
2019-Dec-12 16:40 360 7 gusting 8 9.8
2019-Dec-12 16:30 360 9 gusting 11 9.7
2019-Dec-12 16:20 360 4 gusting 8 9.7
2019-Dec-12 16:10 360 6 gusting 8 9.6
2019-Dec-12 16:00 360 8 gusting 11 9.6
2019-Dec-12 15:50 360 8 gusting 9 9.5
2019-Dec-12 15:40 360 4 gusting 11 9.4
2019-Dec-12 15:30 360 4 gusting 12 9.4
2019-Dec-12 15:20 360 3 gusting 12 9.3
2019-Dec-12 15:10 360 7 gusting 11 9.1
2019-Dec-12 15:00 360 7 gusting 11 9.0
2019-Dec-12 14:50 360 4 gusting 11 8.8
2019-Dec-12 14:40 360 3 gusting 9 8.7
2019-Dec-12 14:20 360 4 gusting 8 8.3
2019-Dec-12 14:10 360 5 gusting 10 8.1
2019-Dec-12 14:00 360 5 gusting 8 7.9
2019-Dec-12 13:50 360 6 gusting 10 7.8
2019-Dec-12 13:40 360 7 gusting 10 7.7
2019-Dec-12 13:30 360 3 gusting 10 7.6
2019-Dec-12 13:20 360 5 gusting 10 7.5
2019-Dec-12 13:10 360 6 gusting 12 7.4
2019-Dec-12 13:00 360 3 gusting 11 7.4
2019-Dec-12 12:50 360 7 gusting 11 7.4
2019-Dec-12 12:30 360 8 gusting 12 7.3
2019-Dec-12 12:20 360 4 gusting 10 7.3
2019-Dec-12 12:10 360 7 gusting 10 7.3
2019-Dec-12 12:00 360 3 gusting 11 7.3
2019-Dec-12 11:50 360 6 gusting 11 7.3
2019-Dec-12 11:40 360 6 gusting 10 7.2
2019-Dec-12 11:30 360 6 gusting 9 7.0
2019-Dec-12 11:20 360 5 gusting 8 6.8
2019-Dec-12 11:10 360 3 gusting 7 6.6
2019-Dec-12 11:00 360 2 gusting 8 6.4
2019-Dec-12 10:50 360 2 gusting 7 6.3
2019-Dec-12 10:40 360 2 gusting 7 6.1
2019-Dec-12 10:30 360 9 gusting 9 6.1
2019-Dec-12 10:20 360 1 gusting 9 6.1
2019-Dec-12 10:10 360 3 gusting 10 6.1
2019-Dec-12 10:00 360 5 gusting 13 6.1
2019-Dec-12 09:50 360 4 gusting 14 6.0
2019-Dec-12 09:40 360 4 gusting 11 5.9
2019-Dec-12 09:30 360 7 gusting 12 5.8
2019-Dec-12 09:20 360 4 gusting 12 5.8
2019-Dec-12 09:00 360 5 gusting 13 5.9
2019-Dec-12 08:40 360 9 gusting 14 5.9
2019-Dec-12 08:30 360 7 gusting 12 5.8
2019-Dec-12 08:20 360 7 gusting 13 5.6
2019-Dec-12 08:10 360 4 gusting 11 5.5
2019-Dec-12 08:00 360 8 gusting 11 5.5
2019-Dec-12 07:50 360 6 gusting 12 5.5
2019-Dec-12 07:40 360 6 gusting 9 5.4
2019-Dec-12 07:30 360 5 gusting 10 5.4
2019-Dec-12 07:20 360 5 gusting 12 5.4
2019-Dec-12 07:00 360 5 gusting 10 5.4
2019-Dec-12 06:50 360 5 gusting 8 5.6
2019-Dec-12 06:40 360 4 gusting 6 5.6
2019-Dec-12 06:30 360 7 gusting 9 5.6
2019-Dec-12 06:20 360 5 gusting 7 5.7
2019-Dec-12 06:10 360 2 gusting 8 5.8
2019-Dec-12 06:00 360 2 gusting 7 5.9
2019-Dec-12 05:50 360 3 gusting 9 6.1
2019-Dec-12 05:40 360 5 gusting 8 6.2
2019-Dec-12 05:30 360 10 gusting 10 6.2
2019-Dec-12 05:20 360 1 gusting 10 6.3
2019-Dec-12 05:10 360 7 gusting 9 6.3
2019-Dec-12 05:00 360 4 gusting 9 6.4
2019-Dec-12 04:50 360 2 gusting 7 6.4
2019-Dec-12 04:40 360 4 gusting 8 6.5
2019-Dec-12 04:30 360 6 gusting 10 6.7
2019-Dec-12 04:20 360 7 gusting 9 6.8
2019-Dec-12 04:10 360 7 gusting 8 6.9
2019-Dec-12 04:00 360 6 gusting 8 6.9
2019-Dec-12 03:50 360 5 gusting 9 7.3
2019-Dec-12 03:40 360 5 gusting 10 7.6
2019-Dec-12 03:30 360 6 gusting 10 7.7
2019-Dec-12 03:20 360 6 gusting 12 7.8
2019-Dec-12 03:10 360 7 gusting 11 7.9
2019-Dec-12 03:00 360 7 gusting 12 8.2
2019-Dec-12 02:50 360 8 gusting 12 8.3
2019-Dec-12 02:40 360 9 gusting 11 8.4
2019-Dec-12 02:30 360 7 gusting 9 8.6
2019-Dec-12 02:20 360 6 gusting 9 8.6
2019-Dec-12 02:10 360 7 gusting 10 8.7
2019-Dec-12 02:00 360 7 gusting 12 8.8
2019-Dec-12 01:50 360 8 gusting 10 9.0
2019-Dec-12 01:40 360 5 gusting 11 9.1
2019-Dec-12 01:30 360 7 gusting 10 9.2
2019-Dec-12 01:20 360 7 gusting 10 9.1
2019-Dec-12 01:10 360 8 gusting 10 9.1
2019-Dec-12 01:00 360 8 gusting 9 9.0
2019-Dec-12 00:50 360 4 gusting 9 9.0
2019-Dec-12 00:40 360 8 gusting 9 9.0
2019-Dec-12 00:30 360 6 gusting 9 9.0
2019-Dec-12 00:20 360 4 gusting 8 8.9
2019-Dec-12 00:10 360 4 gusting 8 9.1
2019-Dec-12 00:00 360 4 gusting 9 9.2
2019-Dec-11 23:50 360 4 gusting 9 9.3
2019-Dec-11 23:40 360 5 gusting 7 9.4
2019-Dec-11 23:30 360 6 gusting 7 9.6
2019-Dec-11 23:20 360 6 gusting 6 9.7
2019-Dec-11 23:10 360 3 gusting 7 10.0
2019-Dec-11 23:00 360 4 gusting 8 10.2
2019-Dec-11 22:50 360 3 gusting 7 10.6
2019-Dec-11 22:40 360 5 gusting 10 10.8
2019-Dec-11 22:30 360 7 gusting 10 11.0
2019-Dec-11 22:20 360 9 gusting 10 11.0
2019-Dec-11 22:10 360 4 gusting 8 11.1
2019-Dec-11 22:00 360 5 gusting 13 11.2
2019-Dec-11 21:50 360 6 gusting 11 11.1
2019-Dec-11 21:40 360 9 gusting 11 11.2
2019-Dec-11 21:30 005 9 gusting 14 11.3
2019-Dec-11 21:20 010 7 gusting 19 11.7
2019-Dec-11 21:10 005 15 gusting 17 12.2
2019-Dec-11 21:00 022 13 gusting 19 12.0
2019-Dec-11 20:50 005 9 gusting 18 12.3
2019-Dec-11 20:40 360 7 gusting 20 11.9
2019-Dec-11 20:30 360 13 gusting 18 11.6
2019-Dec-11 20:20 360 7 gusting 16 11.3
2019-Dec-11 20:10 360 5 gusting 18 11.2
2019-Dec-11 20:00 360 13 gusting 19 11.3
2019-Dec-11 19:50 360 12 gusting 13 11.1
2019-Dec-11 19:40 360 5 gusting 14 11.1
2019-Dec-11 19:30 360 11 gusting 15 11.2
2019-Dec-11 19:20 360 9 gusting 15 11.3
2019-Dec-11 19:10 360 11 gusting 19 11.2
2019-Dec-11 19:00 360 11 gusting 18 11.1
2019-Dec-11 18:50 360 8 gusting 18 10.9
2019-Dec-11 18:40 360 11 gusting 19 10.9
2019-Dec-11 18:30 360 12 gusting 18 10.8
2019-Dec-11 18:20 360 19 gusting 22 10.6
2019-Dec-11 18:10 360 15 gusting 20 10.6
2019-Dec-11 18:00 360 11 gusting 24 10.4
2019-Dec-11 17:50 360 13 gusting 19 10.4
2019-Dec-11 17:40 360 10 gusting 15 9.1
2019-Dec-11 17:30 360 13 gusting 15 8.2
2019-Dec-11 17:20 360 13 gusting 23 7.8
2019-Dec-11 17:10 360 15 gusting 17 7.4
2019-Dec-11 16:50 360 9 gusting 16 6.5
2019-Dec-11 16:40 360 6 gusting 12 6.1
2019-Dec-11 16:30 360 3 gusting 14 5.9
2019-Dec-11 16:20 360 13 gusting 14 5.8
2019-Dec-11 16:10 360 11 gusting 12 5.8
2019-Dec-11 16:00 360 8 gusting 13 5.7
2019-Dec-11 15:50 360 11 gusting 16 5.6
2019-Dec-11 15:40 360 7 gusting 15 5.4
2019-Dec-11 15:20 360 9 gusting 15 5.2
2019-Dec-11 15:10 360 7 gusting 13 4.9
2019-Dec-11 15:00 360 10 gusting 16 4.9
2019-Dec-11 14:50 360 12 gusting 15 4.9
2019-Dec-11 14:40 360 14 gusting 19 4.8
2019-Dec-11 14:30 360 9 gusting 15 4.8
2019-Dec-11 14:20 360 13 gusting 19 4.7
2019-Dec-11 14:10 360 14 gusting 16 4.8
2019-Dec-11 14:00 360 13 gusting 20 4.8
2019-Dec-11 13:50 360 13 gusting 18 4.8
2019-Dec-11 13:40 360 14 gusting 17 4.9
2019-Dec-11 13:30 360 11 gusting 14 4.9
2019-Dec-11 13:20 360 12 gusting 15 4.9
2019-Dec-11 13:10 360 7 gusting 16 4.9
2019-Dec-11 13:00 360 10 gusting 17 5.0
2019-Dec-11 12:50 360 13 gusting 19 5.1
2019-Dec-11 12:40 360 10 gusting 16 5.1
2019-Dec-11 12:30 360 9 gusting 16 5.1
2019-Dec-11 12:20 360 11 gusting 18 5.1
2019-Dec-11 12:10 360 15 gusting 16 5.2
2019-Dec-11 12:00 360 4 gusting 19 5.2
2019-Dec-11 11:50 360 9 gusting 15 5.2
2019-Dec-11 11:40 360 12 gusting 19 5.3
2019-Dec-11 11:30 360 16 gusting 19 5.4
2019-Dec-11 11:20 360 12 gusting 22 5.5
2019-Dec-11 11:10 360 6 gusting 14 5.6
2019-Dec-11 11:00 360 7 gusting 16 5.8
2019-Dec-11 10:50 360 6 gusting 15 6.0
2019-Dec-11 10:40 360 8 gusting 15 6.1
2019-Dec-11 10:30 360 7 gusting 14 6.1
2019-Dec-11 10:20 360 7 gusting 18 6.0
2019-Dec-11 10:10 360 13 gusting 16 6.1
2019-Dec-11 10:00 360 10 gusting 13 6.1
2019-Dec-11 09:50 360 11 gusting 16 6.1
2019-Dec-11 09:40 360 6 gusting 17 6.0
2019-Dec-11 09:30 360 17 gusting 19 6.0
2019-Dec-11 09:20 360 14 gusting 15 6.1
2019-Dec-11 09:10 360 10 gusting 20 6.1
2019-Dec-11 09:00 360 13 gusting 16 6.2
2019-Dec-11 08:50 360 11 gusting 18 6.3
2019-Dec-11 08:40 360 8 gusting 19 6.4
2019-Dec-11 08:30 360 17 gusting 20 6.6
2019-Dec-11 08:20 360 10 gusting 19 6.7
2019-Dec-11 08:10 360 13 gusting 21 6.8
2019-Dec-11 08:00 360 10 gusting 19 6.7
2019-Dec-11 07:50 360 13 gusting 18 6.7
2019-Dec-11 07:40 360 15 gusting 18 6.6
2019-Dec-11 07:30 360 17 gusting 17 6.6
2019-Dec-11 07:20 360 9 gusting 19 6.6
2019-Dec-11 07:10 360 10 gusting 15 6.6
2019-Dec-11 07:00 360 8 gusting 16 6.6
2019-Dec-11 06:50 360 10 gusting 18 6.7
2019-Dec-11 06:40 360 5 gusting 19 6.7
2019-Dec-11 06:30 360 14 gusting 21 7.1
2019-Dec-11 06:20 360 13 gusting 21 7.4
2019-Dec-11 06:10 360 9 gusting 20 7.8
2019-Dec-11 06:00 360 14 gusting 19 8.2
2019-Dec-11 05:50 360 13 gusting 21 8.4
2019-Dec-11 05:40 360 12 gusting 19 8.4
2019-Dec-11 05:30 360 12 gusting 21 8.6
2019-Dec-11 05:20 360 9 gusting 20 8.8
2019-Dec-11 05:10 360 13 gusting 26 8.9
2019-Dec-11 04:50 360 11 gusting 18 9.3
2019-Dec-11 04:40 360 6 gusting 20 9.3
2019-Dec-11 04:30 360 21 gusting 26 9.3
2019-Dec-11 04:20 360 12 gusting 26 9.4
2019-Dec-11 04:10 360 19 gusting 22 9.8
2019-Dec-11 04:00 360 13 gusting 19 9.9
2019-Dec-11 03:50 360 17 gusting 26 10.1
2019-Dec-11 03:40 360 12 gusting 22 10.1
2019-Dec-11 03:30 360 18 gusting 24 10.1
2019-Dec-11 03:20 360 14 gusting 19 10.3
2019-Dec-11 03:10 360 19 gusting 22 10.4
2019-Dec-11 03:00 360 13 gusting 18 10.5
2019-Dec-11 02:50 360 12 gusting 19 10.6
2019-Dec-11 02:40 360 9 gusting 19 10.6
2019-Dec-11 02:30 360 10 gusting 16 10.6
2019-Dec-11 02:20 360 16 gusting 22 10.7
2019-Dec-11 02:10 360 13 gusting 20 10.6
2019-Dec-11 02:00 360 13 gusting 18 10.6